START_TIME,STEP,MOV.,M6,t_acc.,M7,t_acc.,M19,t_acc.,H36,t_acc.
1979-03-10 21:00:24.630 ,1,1,0.,12.0,0.,12.0,0.,12.0,0.,12.0
1979-03-10 21:00:36.630 ,1,1,0.,12.0,0.,12.0,0.,12.0,0.,12.0
1979-03-10 21:00:48.630 ,0,1,0.,12.0,0.,12.0,0.,12.0,0.,12.0
1979-03-10 21:01:00.630 ,0,1,0.,12.0,0.,12.0,0.,12.0,0.,12.0
1979-03-10 21:01:12.630 ,0,1,0.,12.0,0.,12.0,0.,12.0,0.,12.0
1979-03-10 21:01:24.630 ,0,1,0.,12.0,0.,12.0,0.,12.0,0.,12.0
1979-03-10 21:01:36.630 ,1,1,0.,12.0,0.,12.0,0.,12.0,0.,12.0
1979-03-10 21:01:48.630 ,1,1,0.,12.0,0.,12.0,0.,12.0,0.,12.0
1979-03-10 21:02:00.630 ,2,1,0.,12.0,0.,12.0,0.,12.0,0.,12.0
1979-03-10 21:02:12.630 ,2,1,0.,12.0,0.,12.0,0.,12.0,0.,12.0
1979-03-10 21:02:24.630 ,3,1,0.,12.0,0.,12.0,0.,12.0,0.,12.0
1979-03-10 21:02:36.630 ,3,1,0.,12.0,0.,12.0,0.,12.0,0.,12.0
1979-03-10 21:02:48.630 ,4,1,0.,12.0,0.,12.0,0.,12.0,0.,12.0
1979-03-10 21:03:00.630 ,4,1,0.,12.0,0.,12.0,0.,12.0,0.,12.0
1979-03-10 21:03:12.630 ,5,1,0.,12.0,0.,12.0,0.,12.0,0.,12.0
1979-03-10 21:03:24.630 ,5,1,0.,12.0,0.,12.0,0.,12.0,0.,12.0
1979-03-10 21:03:36.630 ,6,1,0.,12.0,0.,12.0,0.,12.0,0.,12.0
1979-03-10 21:03:48.630 ,6,1,0.,12.0,0.,12.0,0.,12.0,0.,12.0
1979-03-10 21:04:00.630 ,7,1,0.,12.0,0.,12.0,0.,12.0,0.,12.0
1979-03-10 21:04:12.630 ,7,1,0.,12.0,0.,12.0,0.,12.0,0.,12.0
1979-03-10 21:04:24.630 ,7,1,0.,12.0,0.,12.0,0.,12.0,0.,12.0
1979-03-10 21:04:36.630 ,7,1,0.,12.0,0.,12.0,0.,12.0,0.,12.0
1979-03-10 21:04:48.630 ,6,1,0.,12.0,0.,12.0,0.,12.0,0.,12.0
1979-03-10 21:05:00.630 ,6,1,0.,12.0,0.,12.0,0.,12.0,0.,12.0
1979-03-10 21:05:12.630 ,5,1,0.,12.0,0.,12.0,0.,12.0,0.,12.0
1979-03-10 21:05:24.630 ,5,1,0.,12.0,0.,12.0,0.,12.0,0.,12.0
1979-03-10 21:05:36.630 ,4,1,0.,12.0,0.,12.0,0.,12.0,0.,12.0
1979-03-10 21:05:48.630 ,4,1,0.,12.0,0.,12.0,0.,12.0,0.,12.0
1979-03-10 21:06:00.630 ,3,1,0.,12.0,0.,12.0,0.,12.0,0.,12.0
1979-03-10 21:06:12.630 ,3,1,0.,12.0,0.,12.0,0.,12.0,0.,12.0
1979-03-10 21:06:24.630 ,2,1,0.,12.0,0.,12.0,0.,12.0,0.,12.0
1979-03-10 21:06:36.630 ,2,1,0.,12.0,0.,12.0,0.,12.0,0.,12.0
1979-03-10 21:06:48.630 ,1,1,0.,12.0,0.,12.0,0.,12.0,0.,12.0
1979-03-10 21:07:00.630 ,1,1,0.,12.0,0.,12.0,0.,12.0,0.,12.0
1979-03-10 21:07:12.630 ,0,1,0.,12.0,0.,12.0,0.,12.0,0.,12.0
1979-03-10 21:07:24.630 ,0,1,0.,12.0,0.,12.0,0.,12.0,0.,12.0
1979-03-10 21:07:36.630 ,0,1,0.,12.0,0.,12.0,0.,12.0,0.,12.0
1979-03-10 21:07:48.630 ,0,1,0.,12.0,0.,12.0,0.,12.0,0.,12.0
1979-03-10 21:08:00.630 ,1,1,0.,12.0,0.,12.0,0.,12.0,0.,12.0
1979-03-10 21:08:12.630 ,1,1,0.,12.0,0.,12.0,0.,12.0,0.,12.0
1979-03-10 21:08:24.630 ,2,1,0.,12.0,0.,12.0,0.,12.0,0.,12.0
1979-03-10 21:08:36.630 ,2,1,0.,12.0,0.,12.0,0.,12.0,0.,12.0
1979-03-10 21:08:48.630 ,3,1,0.,12.0,0.,12.0,0.,12.0,0.,12.0
1979-03-10 21:09:00.630 ,3,1,0.,12.0,0.,12.0,0.,12.0,0.,12.0
1979-03-10 21:09:12.630 ,4,1,0.,12.0,0.,12.0,0.,12.0,0.,12.0
1979-03-10 21:09:24.630 ,4,1,0.,12.0,0.,12.0,0.,12.0,0.,12.0
1979-03-10 21:09:36.630 ,5,1,0.,12.0,0.,12.0,0.,12.0,0.,12.0
1979-03-10 21:09:48.630 ,5,1,0.,12.0,0.,12.0,0.,12.0,0.,12.0
1979-03-10 21:10:00.630 ,6,1,0.,12.0,0.,12.0,0.,12.0,0.,12.0
1979-03-10 21:10:12.630 ,6,1,0.,12.0,0.,12.0,0.,12.0,0.,12.0
1979-03-10 21:10:24.630 ,7,1,0.,12.0,0.,12.0,0.,12.0,0.,12.0
1979-03-10 21:10:36.630 ,7,1,0.,12.0,0.,12.0,0.,12.0,0.,12.0
1979-03-10 21:10:48.630 ,7,1,0.,12.0,0.,12.0,0.,12.0,0.,12.0
1979-03-10 21:11:00.630 ,7,1,0.,12.0,0.,12.0,0.,12.0,0.,12.0
1979-03-10 21:11:12.630 ,6,1,0.,12.0,0.,12.0,0.,12.0,0.,12.0
1979-03-10 21:11:24.630 ,6,1,0.,12.0,0.,12.0,0.,12.0,0.,12.0
1979-03-10 21:11:36.630 ,5,1,0.,12.0,0.,12.0,0.,12.0,0.,12.0
1979-03-10 21:11:48.630 ,5,1,0.,12.0,0.,12.0,0.,12.0,0.,12.0
1979-03-10 21:12:00.630 ,4,1,0.,12.0,0.,12.0,0.,12.0,0.,12.0
1979-03-10 21:12:12.630 ,4,1,0.,12.0,0.,12.0,0.,12.0,0.,12.0
1979-03-10 21:12:24.630 ,3,1,0.,12.0,0.,12.0,0.,12.0,0.,12.0
1979-03-10 21:12:36.630 ,3,1,0.,12.0,0.,12.0,0.,12.0,0.,12.0
1979-03-10 21:12:48.630 ,2,1,0.,12.0,0.,12.0,0.,12.0,0.,12.0
1979-03-10 21:13:00.630 ,2,1,0.,12.0,0.,12.0,0.,12.0,0.,12.0
1979-03-10 21:13:12.630 ,1,1,0.,12.0,0.,12.0,0.,12.0,0.,12.0
1979-03-10 21:13:24.630 ,1,1,0.,12.0,0.,12.0,0.,12.0,0.,12.0
1979-03-10 21:13:36.630 ,0,1,0.,12.0,0.,12.0,0.,12.0,0.,12.0
1979-03-10 21:13:48.630 ,0,1,0.,12.0,0.,12.0,0.,12.0,0.,12.0
1979-03-10 21:14:00.630 ,0,1,0.,12.0,0.,12.0,0.,12.0,0.,12.0
1979-03-10 21:14:12.630 ,0,1,0.,12.0,0.,12.0,0.,12.0,0.,12.0
1979-03-10 21:14:24.630 ,1,1,0.,12.0,0.,12.0,0.,12.0,0.,12.0
1979-03-10 21:14:36.630 ,1,1,0.,12.0,0.,12.0,0.,12.0,0.,12.0
1979-03-10 21:14:48.630 ,2,1,0.,12.0,0.,12.0,0.,12.0,0.,12.0
1979-03-10 21:15:00.630 ,2,1,0.,12.0,0.,12.0,0.,12.0,0.,12.0
1979-03-10 21:15:12.630 ,3,1,0.,12.0,0.,12.0,0.,12.0,0.,12.0
1979-03-10 21:15:24.630 ,3,1,0.,12.0,0.,12.0,0.,12.0,0.,12.0
1979-03-10 21:15:36.630 ,4,1,0.,12.0,0.,12.0,0.,12.0,0.,12.0
1979-03-10 21:15:48.630 ,4,1,0.,12.0,0.,12.0,0.,12.0,0.,12.0
1979-03-10 21:16:00.630 ,5,1,0.,12.0,0.,12.0,0.,12.0,0.,12.0
1979-03-10 21:16:12.630 ,5,1,0.,12.0,0.,12.0,0.,12.0,0.,12.0
1979-03-10 21:16:24.630 ,6,1,0.,12.0,0.,12.0,0.,12.0,0.,12.0
1979-03-10 21:16:36.630 ,6,1,0.,12.0,0.,12.0,0.,12.0,0.,12.0
1979-03-10 21:16:48.630 ,7,1,0.,12.0,0.,12.0,0.,12.0,0.,12.0
1979-03-10 21:17:00.630 ,7,1,0.,12.0,0.,12.0,0.,12.0,0.,12.0
1979-03-10 21:17:12.630 ,7,1,0.,12.0,0.,12.0,0.,12.0,0.,12.0
1979-03-10 21:17:24.630 ,7,1,0.,12.0,0.,12.0,0.,12.0,0.,12.0
1979-03-10 21:17:36.630 ,6,1,0.,12.0,0.,12.0,0.,12.0,0.,12.0
1979-03-10 21:17:48.630 ,6,1,0.,12.0,0.,12.0,0.,12.0,0.,12.0
1979-03-10 21:18:00.630 ,5,1,0.,12.0,0.,12.0,0.,12.0,0.,12.0
1979-03-10 21:18:12.630 ,5,1,0.,12.0,0.,12.0,0.,12.0,0.,12.0
1979-03-10 21:18:24.630 ,4,1,0.,12.0,0.,12.0,0.,12.0,0.,12.0
1979-03-10 21:18:36.630 ,4,1,0.,12.0,0.,12.0,0.,12.0,0.,12.0
1979-03-10 21:18:48.630 ,3,1,0.,12.0,0.,12.0,0.,12.0,0.,12.0
1979-03-10 21:19:00.630 ,3,1,0.,12.0,0.,12.0,0.,12.0,0.,12.0
1979-03-10 21:19:12.630 ,2,1,0.,12.0,0.,12.0,0.,12.0,0.,12.0
1979-03-10 21:19:24.630 ,2,1,0.,12.0,0.,12.0,0.,12.0,0.,12.0
1979-03-10 21:19:36.630 ,1,1,0.,12.0,0.,12.0,0.,12.0,0.,12.0
1979-03-10 21:19:48.630 ,1,1,0.,12.0,0.,12.0,0.,12.0,0.,12.0
1979-03-10 21:20:00.630 ,0,1,0.,12.0,0.,12.0,0.,12.0,0.,12.0
1979-03-10 21:20:12.630 ,0,1,0.,12.0,0.,12.0,0.,12.0,0.,12.0
1979-03-10 21:20:24.630 ,0,1,0.,12.0,0.,12.0,0.,12.0,0.,12.0
1979-03-10 21:20:36.630 ,0,1,0.,12.0,0.,12.0,0.,12.0,0.,12.0
1979-03-10 21:20:48.630 ,1,1,0.,12.0,0.,12.0,0.,12.0,0.,12.0
1979-03-10 21:21:00.630 ,1,1,0.,12.0,0.,12.0,0.,12.0,0.,12.0
1979-03-10 21:21:12.630 ,2,1,0.,12.0,0.,12.0,0.,12.0,0.,12.0
1979-03-10 21:21:24.630 ,2,1,0.,12.0,0.,12.0,0.,12.0,0.,12.0
1979-03-10 21:21:36.630 ,3,1,0.,12.0,0.,12.0,0.,12.0,0.,12.0
1979-03-10 21:21:48.630 ,3,1,0.,12.0,0.,12.0,0.,12.0,0.,12.0
1979-03-10 21:22:00.630 ,4,1,0.,12.0,0.,12.0,0.,12.0,0.,12.0
1979-03-10 21:22:12.630 ,4,1,0.,12.0,0.,12.0,0.,12.0,0.,12.0
1979-03-10 21:22:24.630 ,5,1,0.,12.0,0.,12.0,0.,12.0,0.,12.0
1979-03-10 21:22:36.630 ,5,1,0.,12.0,0.,12.0,0.,12.0,0.,12.0
1979-03-10 21:22:48.630 ,6,1,0.,12.0,0.,12.0,0.,12.0,0.,12.0
1979-03-10 21:23:00.630 ,6,1,0.,12.0,0.,12.0,0.,12.0,0.,12.0
1979-03-10 21:23:12.630 ,7,1,0.,12.0,0.,12.0,0.,12.0,0.,12.0
1979-03-10 21:23:24.630 ,7,1,0.,12.0,0.,12.0,0.,12.0,0.,12.0
1979-03-10 21:23:36.630 ,7,1,0.,12.0,0.,12.0,0.,12.0,0.,12.0
1979-03-10 21:23:48.630 ,7,1,0.,12.0,0.,12.0,0.,12.0,0.,12.0
1979-03-10 21:24:00.630 ,6,1,0.,12.0,0.,12.0,0.,12.0,0.,12.0
1979-03-10 21:24:12.630 ,6,1,0.,12.0,0.,12.0,0.,12.0,0.,12.0
1979-03-10 21:24:24.630 ,5,1,0.,12.0,0.,12.0,0.,12.0,0.,12.0
1979-03-10 21:24:36.630 ,5,1,0.,12.0,0.,12.0,0.,12.0,0.,12.0
1979-03-10 21:24:48.630 ,4,1,0.,12.0,0.,12.0,0.,12.0,0.,12.0
1979-03-10 21:25:00.630 ,4,1,0.,12.0,0.,12.0,0.,12.0,0.,12.0
1979-03-10 21:25:12.630 ,3,1,0.,12.0,0.,12.0,0.,12.0,0.,12.0
1979-03-10 21:25:24.630 ,3,1,0.,12.0,0.,12.0,0.,12.0,0.,12.0
1979-03-10 21:25:36.630 ,2,1,0.,12.0,0.,12.0,0.,12.0,0.,12.0
1979-03-10 21:25:48.630 ,2,1,0.,12.0,0.,12.0,0.,12.0,0.,12.0
1979-03-10 21:26:00.630 ,1,1,0.,12.0,0.,12.0,0.,12.0,0.,12.0
1979-03-10 21:26:12.630 ,1,1,0.,12.0,0.,12.0,0.,12.0,0.,12.0
1979-03-10 21:26:24.630 ,0,1,0.,12.0,0.,12.0,0.,12.0,0.,12.0
1979-03-10 21:26:36.630 ,0,1,0.,12.0,0.,12.0,0.,12.0,0.,12.0
1979-03-10 21:26:48.630 ,0,1,0.,12.0,0.,12.0,0.,12.0,0.,12.0
1979-03-10 21:27:00.630 ,0,1,0.,12.0,0.,12.0,0.,12.0,0.,12.0
1979-03-10 21:27:12.630 ,1,1,0.,12.0,0.,12.0,0.,12.0,0.,12.0
1979-03-10 21:27:24.630 ,1,1,0.,12.0,0.,12.0,0.,12.0,0.,12.0
1979-03-10 21:27:36.630 ,2,1,0.,12.0,0.,12.0,0.,12.0,0.,12.0
1979-03-10 21:27:48.630 ,2,1,0.,12.0,0.,12.0,0.,12.0,0.,12.0
1979-03-10 21:28:00.630 ,3,1,0.,12.0,0.,12.0,0.,12.0,0.,12.0
1979-03-10 21:28:12.630 ,3,1,0.,12.0,0.,12.0,0.,12.0,0.,12.0
1979-03-10 21:28:24.630 ,4,1,0.,12.0,0.,12.0,0.,12.0,0.,12.0
1979-03-10 21:28:36.630 ,4,1,0.,12.0,0.,12.0,0.,12.0,0.,12.0
1979-03-10 21:28:48.630 ,5,1,0.,12.0,0.,12.0,0.,12.0,0.,12.0
1979-03-10 21:29:00.630 ,5,1,0.,12.0,0.,12.0,0.,12.0,0.,12.0
1979-03-10 21:29:12.630 ,6,1,0.,12.0,0.,12.0,0.,12.0,0.,12.0
1979-03-10 21:29:24.630 ,6,1,0.,12.0,0.,12.0,0.,12.0,0.,12.0
1979-03-10 21:29:36.630 ,7,1,0.,12.0,0.,12.0,0.,12.0,0.,12.0
1979-03-10 21:29:48.630 ,7,1,0.,12.0,0.,12.0,0.,12.0,0.,12.0
1979-03-10 21:30:00.630 ,7,1,0.,12.0,0.,12.0,0.,12.0,0.,12.0
1979-03-10 21:30:12.630 ,7,1,0.,12.0,0.,12.0,0.,12.0,0.,12.0
1979-03-10 21:30:24.630 ,6,1,0.,12.0,0.,12.0,0.,12.0,0.,12.0
1979-03-10 21:30:36.630 ,6,1,0.,12.0,0.,12.0,0.,12.0,0.,12.0
1979-03-10 21:30:48.630 ,5,1,0.,12.0,0.,12.0,0.,12.0,0.,12.0
1979-03-10 21:31:00.630 ,5,1,0.,12.0,0.,12.0,0.,12.0,0.,12.0
1979-03-10 21:31:12.630 ,4,1,0.,12.0,0.,12.0,0.,12.0,0.,12.0
1979-03-10 21:31:24.630 ,4,1,0.,12.0,0.,12.0,0.,12.0,0.,12.0
1979-03-10 21:31:36.630 ,3,1,0.,12.0,0.,12.0,0.,12.0,0.,12.0
1979-03-10 21:31:48.630 ,3,1,0.,12.0,0.,12.0,0.,12.0,0.,12.0
1979-03-10 21:32:00.630 ,2,1,0.,12.0,0.,12.0,0.,12.0,0.,12.0
1979-03-10 21:32:12.630 ,2,1,0.,12.0,0.,12.0,0.,12.0,0.,12.0
1979-03-10 21:32:24.630 ,1,1,0.,12.0,0.,12.0,0.,12.0,0.,12.0
1979-03-10 21:32:36.630 ,1,1,0.,12.0,0.,12.0,0.,12.0,0.,12.0
1979-03-10 21:32:48.630 ,0,1,0.,12.0,0.,12.0,0.,12.0,0.,12.0
1979-03-10 21:33:00.630 ,0,1,0.,12.0,0.,12.0,0.,12.0,0.,12.0
1979-03-10 21:33:12.630 ,0,1,0.,12.0,0.,12.0,0.,12.0,0.,12.0
1979-03-10 21:33:24.630 ,0,1,0.,12.0,0.,12.0,0.,12.0,0.,12.0
1979-03-10 21:33:36.630 ,1,1,0.,12.0,0.,12.0,0.,12.0,0.,12.0
1979-03-10 21:33:48.630 ,1,1,0.,12.0,0.,12.0,0.,12.0,0.,12.0
1979-03-10 21:34:00.630 ,2,1,0.,12.0,0.,12.0,0.,12.0,0.,12.0
1979-03-10 21:34:12.630 ,2,1,0.,12.0,0.,12.0,0.,12.0,0.,12.0
1979-03-10 21:34:24.630 ,3,1,0.,12.0,0.,12.0,0.,12.0,0.,12.0
1979-03-10 21:34:36.630 ,3,1,0.,12.0,0.,12.0,0.,12.0,0.,12.0
1979-03-10 21:34:48.630 ,4,1,0.,12.0,0.,12.0,0.,12.0,0.,12.0
1979-03-10 21:35:00.630 ,4,1,0.,12.0,0.,12.0,0.,12.0,0.,12.0
1979-03-10 21:35:12.630 ,5,1,0.,12.0,0.,12.0,0.,12.0,0.,12.0
1979-03-10 21:35:24.630 ,5,1,0.,12.0,0.,12.0,0.,12.0,0.,12.0
1979-03-10 21:35:36.630 ,6,1,0.,12.0,0.,12.0,0.,12.0,0.,12.0
1979-03-10 21:35:48.630 ,6,1,0.,12.0,0.,12.0,0.,12.0,0.,12.0
1979-03-10 21:36:00.630 ,7,1,0.,12.0,0.,12.0,0.,12.0,0.,12.0
1979-03-10 21:36:12.630 ,7,1,0.,12.0,0.,12.0,0.,12.0,0.,12.0
1979-03-10 21:36:24.630 ,7,1,0.,12.0,0.,12.0,0.,12.0,0.,12.0
1979-03-10 21:36:36.630 ,7,1,0.,12.0,0.,12.0,0.,12.0,0.,12.0
1979-03-10 21:36:48.630 ,6,1,0.,12.0,0.,12.0,0.,12.0,0.,12.0
1979-03-10 21:37:00.630 ,6,1,0.,12.0,0.,12.0,0.,12.0,0.,12.0
1979-03-10 21:37:12.630 ,5,1,0.,12.0,0.,12.0,0.,12.0,0.,12.0
1979-03-10 21:37:24.630 ,5,1,0.,12.0,0.,12.0,0.,12.0,0.,12.0
1979-03-10 21:37:36.630 ,4,1,0.,12.0,0.,12.0,0.,12.0,0.,12.0
1979-03-10 21:37:48.630 ,4,1,0.,12.0,0.,12.0,0.,12.0,0.,12.0
1979-03-10 21:38:00.630 ,3,1,0.,12.0,0.,12.0,0.,12.0,0.,12.0
1979-03-10 21:38:12.630 ,3,1,0.,12.0,0.,12.0,0.,12.0,0.,12.0
1979-03-10 21:38:24.630 ,2,1,0.,12.0,0.,12.0,0.,12.0,0.,12.0
1979-03-10 21:38:36.630 ,2,1,0.,12.0,0.,12.0,0.,12.0,0.,12.0
1979-03-10 21:38:48.630 ,1,1,0.,12.0,0.,12.0,0.,12.0,0.,12.0
1979-03-10 21:39:00.630 ,1,1,0.,12.0,0.,12.0,0.,12.0,0.,12.0
1979-03-10 21:39:12.630 ,0,1,0.,12.0,0.,12.0,0.,12.0,0.,12.0
1979-03-10 21:39:24.630 ,0,1,0.,12.0,0.,12.0,0.,12.0,0.,12.0
1979-03-10 21:39:36.630 ,0,1,0.,12.0,0.,12.0,0.,12.0,0.,12.0
1979-03-10 21:39:48.630 ,0,1,0.,12.0,0.,12.0,0.,12.0,0.,12.0
1979-03-10 21:40:00.630 ,1,1,0.,12.0,0.,12.0,0.,12.0,0.,12.0
1979-03-10 21:40:12.630 ,1,1,0.,12.0,0.,12.0,0.,12.0,0.,12.0
1979-03-10 21:40:24.630 ,2,1,0.,12.0,0.,12.0,0.,12.0,0.,12.0
1979-03-10 21:40:36.630 ,2,1,0.,12.0,0.,12.0,0.,12.0,0.,12.0
1979-03-10 21:40:48.630 ,3,1,0.,12.0,0.,12.0,0.,12.0,0.,12.0
1979-03-10 21:41:00.630 ,3,1,0.,12.0,0.,12.0,0.,12.0,0.,12.0
1979-03-10 21:41:12.630 ,4,1,0.,12.0,0.,12.0,0.,12.0,0.,12.0
1979-03-10 21:41:24.630 ,4,1,0.,12.0,0.,12.0,0.,12.0,0.,12.0
1979-03-10 21:41:36.630 ,5,1,0.,12.0,0.,12.0,0.,12.0,0.,12.0
1979-03-10 21:41:48.630 ,5,1,0.,12.0,0.,12.0,0.,12.0,0.,12.0
1979-03-10 21:42:00.630 ,6,1,0.,12.0,0.,12.0,0.,12.0,0.,12.0
1979-03-10 21:42:12.630 ,6,1,0.,12.0,0.,12.0,0.,12.0,0.,12.0
1979-03-10 21:42:24.630 ,7,1,0.,12.0,0.,12.0,0.,12.0,0.,12.0
1979-03-10 21:42:36.630 ,7,1,0.,12.0,0.,12.0,0.,12.0,0.,12.0
1979-03-10 21:42:48.630 ,7,1,0.,12.0,0.,12.0,0.,12.0,0.,12.0
1979-03-10 21:43:00.630 ,7,1,0.,12.0,0.,12.0,0.,12.0,0.,12.0
1979-03-10 21:43:12.630 ,6,1,0.,12.0,0.,12.0,0.,12.0,0.,12.0
1979-03-10 21:43:24.630 ,6,1,0.,12.0,0.,12.0,0.,12.0,0.,12.0
1979-03-10 21:43:36.630 ,5,1,0.,12.0,0.,12.0,0.,12.0,0.,12.0
1979-03-10 21:43:48.630 ,5,1,0.,12.0,0.,12.0,0.,12.0,0.,12.0
1979-03-10 21:44:00.630 ,4,1,0.,12.0,0.,12.0,0.,12.0,0.,12.0
1979-03-10 21:44:12.630 ,4,1,0.,12.0,0.,12.0,0.,12.0,0.,12.0
1979-03-10 21:44:24.630 ,3,1,0.,12.0,0.,12.0,0.,12.0,0.,12.0
1979-03-10 21:44:36.630 ,3,1,0.,12.0,0.,12.0,0.,12.0,0.,12.0
1979-03-10 21:44:48.630 ,2,1,0.,12.0,0.,12.0,0.,12.0,0.,12.0
1979-03-10 21:45:00.630 ,2,1,0.,12.0,0.,12.0,0.,12.0,0.,12.0
1979-03-10 21:45:12.630 ,1,1,0.,12.0,0.,12.0,0.,12.0,0.,12.0
1979-03-10 21:45:24.630 ,1,1,0.,12.0,0.,12.0,0.,12.0,0.,12.0
1979-03-10 21:45:36.630 ,0,1,0.,12.0,0.,12.0,0.,12.0,0.,12.0
1979-03-10 21:45:48.630 ,0,1,0.,12.0,0.,12.0,0.,12.0,0.,12.0
1979-03-10 21:46:00.630 ,0,1,0.,12.0,0.,12.0,0.,12.0,0.,12.0
1979-03-10 21:46:12.630 ,0,1,0.,12.0,0.,12.0,0.,12.0,0.,12.0
1979-03-10 21:46:24.630 ,1,1,0.,12.0,0.,12.0,0.,12.0,0.,12.0
1979-03-10 21:46:36.630 ,1,1,0.,12.0,0.,12.0,0.,12.0,0.,12.0
1979-03-10 21:46:48.630 ,2,1,0.,12.0,0.,12.0,0.,12.0,0.,12.0
1979-03-10 21:47:00.630 ,2,1,0.,12.0,0.,12.0,0.,12.0,0.,12.0
1979-03-10 21:47:12.630 ,3,1,0.,12.0,0.,12.0,0.,12.0,0.,12.0
1979-03-10 21:47:24.630 ,3,1,0.,12.0,0.,12.0,0.,12.0,0.,12.0
1979-03-10 21:47:36.630 ,4,1,0.,12.0,0.,12.0,0.,12.0,0.,12.0
1979-03-10 21:47:48.630 ,4,1,0.,12.0,0.,12.0,0.,12.0,0.,12.0
1979-03-10 21:48:00.630 ,5,1,0.,12.0,0.,12.0,0.,12.0,0.,12.0
1979-03-10 21:48:12.630 ,5,1,0.,12.0,0.,12.0,0.,12.0,0.,12.0
1979-03-10 21:48:24.630 ,6,1,0.,12.0,0.,12.0,0.,12.0,0.,12.0
1979-03-10 21:48:36.630 ,6,1,0.,12.0,0.,12.0,0.,12.0,0.,12.0
1979-03-10 21:48:48.630 ,7,1,0.,12.0,0.,12.0,0.,12.0,0.,12.0
1979-03-10 21:49:00.630 ,7,1,0.,12.0,0.,12.0,0.,12.0,0.,12.0
1979-03-10 21:49:12.630 ,7,1,0.,12.0,0.,12.0,0.,12.0,0.,12.0
1979-03-10 21:49:24.630 ,7,1,0.,12.0,0.,12.0,0.,12.0,0.,12.0
1979-03-10 21:49:36.630 ,6,1,0.,12.0,0.,12.0,0.,12.0,0.,12.0
1979-03-10 21:49:48.630 ,6,1,0.,12.0,0.,12.0,0.,12.0,0.,12.0
1979-03-10 21:50:00.630 ,0,0,0.,12.0,0.,12.0,0.,12.0,0.,12.0
1979-03-10 21:50:12.630 ,0,0,0.,12.0,0.,12.0,0.,12.0,0.,12.0
1979-03-10 21:50:22.230 ,0,0,,0,,0,,0,,0
1979-03-10 21:50:34.230 ,0,0,,0,,0,,0,,0
1979-03-10 21:50:24.630 ,0,0,0.,12.0,0.,12.0,0.,12.0,0.,12.0
1979-03-10 21:50:36.630 ,0,0,0.,12.0,0.,12.0,0.,12.0,0.,12.0
1979-03-10 21:50:48.630 ,3,1,0.,12.0,0.,12.0,0.,12.0,0.,12.0
1979-03-10 21:51:00.630 ,3,1,0.,12.0,0.,12.0,0.,12.0,0.,12.0
1979-03-10 21:51:12.630 ,2,1,0.,12.0,0.,12.0,0.,12.0,0.,12.0
1979-03-10 21:51:24.630 ,2,1,0.,12.0,0.,12.0,0.,12.0,0.,12.0
1979-03-10 21:51:36.630 ,1,1,0.,12.0,0.,12.0,0.,12.0,0.,12.0
1979-03-10 21:51:48.630 ,1,1,0.,12.0,0.,12.0,0.,12.0,0.,12.0
1979-03-10 21:52:00.630 ,0,1,0.,12.0,0.,12.0,0.,12.0,0.,12.0
1979-03-10 21:52:12.630 ,0,1,0.,12.0,0.,12.0,0.,12.0,0.,12.0
1979-03-10 21:52:24.630 ,0,1,0.,12.0,0.,12.0,0.,12.0,0.,12.0
1979-03-10 21:52:36.630 ,0,1,0.,12.0,0.,12.0,0.,12.0,0.,12.0
1979-03-10 21:52:48.630 ,1,1,0.,12.0,0.,12.0,0.,12.0,0.,12.0
1979-03-10 21:53:00.630 ,1,1,0.,12.0,0.,12.0,0.,12.0,0.,12.0
1979-03-10 21:53:12.630 ,2,1,0.,12.0,0.,12.0,0.,12.0,0.,12.0
1979-03-10 21:53:24.630 ,2,1,0.,12.0,0.,12.0,0.,12.0,0.,12.0
1979-03-10 21:53:36.630 ,3,1,0.,12.0,0.,12.0,0.,12.0,0.,12.0
1979-03-10 21:53:48.630 ,3,1,0.,12.0,0.,12.0,0.,12.0,0.,12.0
1979-03-10 21:54:00.630 ,4,1,0.,12.0,0.,12.0,0.,12.0,0.,12.0
1979-03-10 21:54:12.630 ,4,1,0.,12.0,0.,12.0,0.,12.0,0.,12.0
1979-03-10 21:54:24.630 ,5,1,0.,12.0,0.,12.0,0.,12.0,0.,12.0
1979-03-10 21:54:36.630 ,5,1,0.,12.0,0.,12.0,0.,12.0,0.,12.0
1979-03-10 21:54:48.630 ,6,1,0.,12.0,0.,12.0,0.,12.0,0.,12.0
1979-03-10 21:55:00.630 ,6,1,0.,12.0,0.,12.0,0.,12.0,0.,12.0
1979-03-10 21:55:12.630 ,7,1,0.,12.0,0.,12.0,0.,12.0,0.,12.0
1979-03-10 21:55:24.630 ,7,1,0.,12.0,0.,12.0,0.,12.0,0.,12.0
1979-03-10 21:55:36.630 ,7,1,0.,12.0,0.,12.0,0.,12.0,0.,12.0
1979-03-10 21:55:48.630 ,7,1,0.,12.0,0.,12.0,0.,12.0,0.,12.0
1979-03-10 21:56:00.630 ,6,1,0.,12.0,0.,12.0,0.,12.0,0.,12.0
1979-03-10 21:56:12.630 ,6,1,0.,12.0,0.,12.0,0.,12.0,0.,12.0
1979-03-10 21:56:24.630 ,5,1,0.,12.0,0.,12.0,0.,12.0,0.,12.0
1979-03-10 21:56:36.630 ,5,1,0.,12.0,0.,12.0,0.,12.0,0.,12.0
1979-03-10 21:56:48.630 ,4,1,0.,12.0,0.,12.0,0.,12.0,0.,12.0
1979-03-10 21:57:00.630 ,4,1,0.,12.0,0.,12.0,0.,12.0,0.,12.0
1979-03-10 21:57:12.630 ,3,1,0.,12.0,0.,12.0,0.,12.0,0.,12.0
1979-03-10 21:57:24.630 ,3,1,0.,12.0,0.,12.0,0.,12.0,0.,12.0
1979-03-10 21:57:36.630 ,2,1,0.,12.0,0.,12.0,0.,12.0,0.,12.0
1979-03-10 21:57:48.630 ,2,1,0.,12.0,0.,12.0,0.,12.0,0.,12.0
1979-03-10 21:58:00.630 ,1,1,0.,12.0,0.,12.0,0.,12.0,0.,12.0
1979-03-10 21:58:12.630 ,1,1,0.,12.0,0.,12.0,0.,12.0,0.,12.0
1979-03-10 21:58:24.630 ,0,1,0.,12.0,0.,12.0,0.,12.0,0.,12.0
1979-03-10 21:58:36.630 ,0,1,0.,12.0,0.,12.0,0.,12.0,0.,12.0
1979-03-10 21:58:48.630 ,0,1,0.,12.0,0.,12.0,0.,12.0,0.,12.0
1979-03-10 21:59:00.630 ,0,1,0.,12.0,0.,12.0,0.,12.0,0.,12.0
1979-03-10 21:59:12.630 ,1,1,0.,12.0,0.,12.0,0.,12.0,0.,12.0
1979-03-10 21:59:24.630 ,1,1,0.,12.0,0.,12.0,0.,12.0,0.,12.0
1979-03-10 21:59:36.630 ,2,1,0.,12.0,0.,12.0,0.,12.0,0.,12.0
1979-03-10 21:59:48.630 ,2,1,0.,12.0,0.,12.0,0.,12.0,0.,12.0
1979-03-10 22:00:00.630 ,3,1,0.,12.0,0.,12.0,0.,12.0,0.,12.0
1979-03-10 22:00:12.630 ,3,1,0.,12.0,0.,12.0,0.,12.0,0.,12.0
1979-03-10 22:00:24.630 ,4,1,0.,12.0,0.,12.0,0.,12.0,0.,12.0
1979-03-10 22:00:36.630 ,4,1,0.,12.0,0.,12.0,0.,12.0,0.,12.0
1979-03-10 22:00:48.630 ,5,1,0.,12.0,0.,12.0,0.,12.0,0.,12.0
1979-03-10 22:01:00.630 ,5,1,0.,12.0,0.,12.0,0.,12.0,0.,12.0
1979-03-10 22:01:12.630 ,6,1,0.,12.0,0.,12.0,0.,12.0,0.,12.0
1979-03-10 22:01:24.630 ,6,1,0.,12.0,0.,12.0,0.,12.0,0.,12.0
1979-03-10 22:01:36.630 ,7,1,0.,12.0,0.,12.0,0.,12.0,0.,12.0
1979-03-10 22:01:48.630 ,7,1,0.,12.0,0.,12.0,0.,12.0,0.,12.0
1979-03-10 22:02:00.630 ,7,1,0.,12.0,0.,12.0,0.,12.0,0.,12.0
1979-03-10 22:02:12.630 ,7,1,0.,12.0,0.,12.0,0.,12.0,0.,12.0
1979-03-10 22:02:24.630 ,6,1,0.,12.0,0.,12.0,0.,12.0,0.,12.0
1979-03-10 22:02:36.630 ,6,1,0.,12.0,0.,12.0,0.,12.0,0.,12.0
1979-03-10 22:02:48.630 ,5,1,0.,12.0,0.,12.0,0.,12.0,0.,12.0
1979-03-10 22:03:00.630 ,5,1,0.,12.0,0.,12.0,0.,12.0,0.,12.0
1979-03-10 22:03:12.630 ,4,1,0.,12.0,0.,12.0,0.,12.0,0.,12.0
1979-03-10 22:03:24.630 ,4,1,0.,12.0,0.,12.0,0.,12.0,0.,12.0
1979-03-10 22:03:36.630 ,3,1,0.,12.0,0.,12.0,0.,12.0,0.,12.0
1979-03-10 22:03:48.630 ,3,1,0.,12.0,0.,12.0,0.,12.0,0.,12.0
1979-03-10 22:04:00.630 ,2,1,0.,12.0,0.,12.0,0.,12.0,0.,12.0
1979-03-10 22:04:12.630 ,2,1,0.,12.0,0.,12.0,0.,12.0,0.,12.0
1979-03-10 22:04:24.630 ,1,1,0.,12.0,0.,12.0,0.,12.0,0.,12.0
1979-03-10 22:04:36.630 ,1,1,0.,12.0,0.,12.0,0.,12.0,0.,12.0
1979-03-10 22:04:48.630 ,0,1,0.,12.0,0.,12.0,0.,12.0,0.,12.0
1979-03-10 22:05:00.630 ,0,1,0.,12.0,0.,12.0,0.,12.0,0.,12.0
1979-03-10 22:05:12.630 ,0,1,0.,12.0,0.,12.0,0.,12.0,0.,12.0
1979-03-10 22:05:24.630 ,0,1,0.,12.0,0.,12.0,0.,12.0,0.,12.0
1979-03-10 22:05:36.630 ,1,1,0.,12.0,0.,12.0,0.,12.0,0.,12.0
1979-03-10 22:05:48.630 ,1,1,0.,12.0,0.,12.0,0.,12.0,0.,12.0
1979-03-10 22:06:00.630 ,2,1,0.,12.0,0.,12.0,0.,12.0,0.,12.0
1979-03-10 22:06:12.630 ,2,1,0.,12.0,0.,12.0,0.,12.0,0.,12.0
1979-03-10 22:06:24.630 ,3,1,0.,12.0,0.,12.0,0.,12.0,0.,12.0
1979-03-10 22:06:36.630 ,3,1,0.,12.0,0.,12.0,0.,12.0,0.,12.0
1979-03-10 22:06:48.630 ,4,1,0.,12.0,0.,12.0,0.,12.0,0.,12.0
1979-03-10 22:07:00.630 ,4,1,0.,12.0,0.,12.0,0.,12.0,0.,12.0
1979-03-10 22:07:12.630 ,5,1,0.,12.0,0.,12.0,0.,12.0,0.,12.0
1979-03-10 22:07:24.630 ,5,1,0.,12.0,0.,12.0,0.,12.0,0.,12.0
1979-03-10 22:07:36.630 ,6,1,0.,12.0,0.,12.0,0.,12.0,0.,12.0
1979-03-10 22:07:48.630 ,6,1,0.,12.0,0.,12.0,0.,12.0,0.,12.0
1979-03-10 22:08:00.630 ,7,1,0.,12.0,0.,12.0,0.,12.0,0.,12.0
1979-03-10 22:08:12.630 ,7,1,0.,12.0,0.,12.0,0.,12.0,0.,12.0
1979-03-10 22:08:24.630 ,7,1,0.,12.0,0.,12.0,0.,12.0,0.,12.0
1979-03-10 22:08:36.630 ,7,1,0.,12.0,0.,12.0,0.,12.0,0.,12.0
1979-03-10 22:08:48.630 ,6,1,0.,12.0,0.,12.0,0.,12.0,0.,12.0
1979-03-10 22:09:00.630 ,6,1,0.,12.0,0.,12.0,0.,12.0,0.,12.0
1979-03-10 22:09:12.630 ,5,1,0.,12.0,0.,12.0,0.,12.0,0.,12.0
1979-03-10 22:09:24.630 ,5,1,0.,12.0,0.,12.0,0.,12.0,0.,12.0
1979-03-10 22:09:36.630 ,4,1,0.,12.0,0.,12.0,0.,12.0,0.,12.0
1979-03-10 22:09:48.630 ,4,1,0.,12.0,0.,12.0,0.,12.0,0.,12.0
1979-03-10 22:10:00.630 ,3,1,0.,12.0,0.,12.0,0.,12.0,0.,12.0
1979-03-10 22:10:12.630 ,3,1,0.,12.0,0.,12.0,0.,12.0,0.,12.0
1979-03-10 22:10:24.630 ,2,1,0.,12.0,0.,12.0,0.,12.0,0.,12.0
1979-03-10 22:10:36.630 ,2,1,0.,12.0,0.,12.0,0.,12.0,0.,12.0
1979-03-10 22:10:48.630 ,1,1,0.,12.0,0.,12.0,0.,12.0,0.,12.0
1979-03-10 22:11:00.630 ,1,1,0.,12.0,0.,12.0,0.,12.0,0.,12.0
1979-03-10 22:11:12.630 ,0,1,0.,12.0,0.,12.0,0.,12.0,0.,12.0
1979-03-10 22:11:24.630 ,0,1,0.,12.0,0.,12.0,0.,12.0,0.,12.0
1979-03-10 22:11:36.630 ,0,1,0.,12.0,0.,12.0,0.,12.0,0.,12.0
1979-03-10 22:11:48.630 ,0,1,0.,12.0,0.,12.0,0.,12.0,0.,12.0
1979-03-10 22:12:00.630 ,1,1,0.,12.0,0.,12.0,0.,12.0,0.,12.0
1979-03-10 22:12:12.630 ,1,1,0.,12.0,0.,12.0,0.,12.0,0.,12.0
1979-03-10 22:12:24.630 ,2,1,0.,12.0,0.,12.0,0.,12.0,0.,12.0
1979-03-10 22:12:36.630 ,2,1,0.,12.0,0.,12.0,0.,12.0,0.,12.0
1979-03-10 22:12:48.630 ,3,1,0.,12.0,0.,12.0,0.,12.0,0.,12.0
1979-03-10 22:13:00.630 ,3,1,0.,12.0,0.,12.0,0.,12.0,0.,12.0
1979-03-10 22:13:12.630 ,4,1,0.,12.0,0.,12.0,0.,12.0,0.,12.0
1979-03-10 22:13:24.630 ,4,1,0.,12.0,0.,12.0,0.,12.0,0.,12.0
1979-03-10 22:13:36.630 ,5,1,0.,12.0,0.,12.0,0.,12.0,0.,12.0
1979-03-10 22:13:48.630 ,5,1,0.,12.0,0.,12.0,0.,12.0,0.,12.0
1979-03-10 22:14:00.630 ,6,1,0.,12.0,0.,12.0,0.,12.0,0.,12.0
1979-03-10 22:14:12.630 ,6,1,0.,12.0,0.,12.0,0.,12.0,0.,12.0
1979-03-10 22:14:24.630 ,7,1,0.,12.0,0.,12.0,0.,12.0,0.,12.0
1979-03-10 22:14:36.630 ,7,1,0.,12.0,0.,12.0,0.,12.0,0.,12.0
1979-03-10 22:14:48.630 ,7,1,0.,12.0,0.,12.0,0.,12.0,0.,12.0
1979-03-10 22:15:00.630 ,7,1,0.,12.0,0.,12.0,0.,12.0,0.,12.0
1979-03-10 22:15:12.630 ,6,1,0.,12.0,0.,12.0,0.,12.0,0.,12.0
1979-03-10 22:15:24.630 ,6,1,0.,12.0,0.,12.0,0.,12.0,0.,12.0
1979-03-10 22:15:36.630 ,5,1,0.,12.0,0.,12.0,0.,12.0,0.,12.0
1979-03-10 22:15:48.630 ,5,1,0.,12.0,0.,12.0,0.,12.0,0.,12.0
1979-03-10 22:16:00.630 ,4,1,0.,12.0,0.,12.0,0.,12.0,0.,12.0
1979-03-10 22:16:12.630 ,4,1,0.,12.0,0.,12.0,0.,12.0,0.,12.0
1979-03-10 22:16:24.630 ,3,1,0.,12.0,0.,12.0,0.,12.0,0.,12.0
1979-03-10 22:16:36.630 ,3,1,0.,12.0,0.,12.0,0.,12.0,0.,12.0
1979-03-10 22:16:48.630 ,2,1,0.,12.0,0.,12.0,0.,12.0,0.,12.0
1979-03-10 22:17:00.630 ,2,1,0.,12.0,0.,12.0,0.,12.0,0.,12.0